GW1995 Weather Reports


time (UTC)temp
C
wind
direction
speed
KPH
gust
KPH
rain 1hr
cm
rain 24hr
cm
rain mn
cm
humidity
%
barometer
mb
20260503230631 21 240 6.4 9.7 0.00 0.00 0.00 24 1004.2
20260503230128 21 297 6.4 9.7 0.00 0.00 0.00 24 1004.3
20260503225626 21 300 1.6 11.3 0.00 0.00 0.00 24 1004.3
20260503225125 21 274 8.0 16.1 0.00 0.00 0.00 25 1004.2
20260503224623 21 244 3.2 4.8 0.00 0.00 0.00 26 1004.2
20260503224121 21 295 4.8 8.0 0.00 0.00 0.00 25 1004.2
20260503223618 21 279 3.2 11.3 0.00 0.00 0.00 26 1004.3
20260503223114 21 285 4.8 8.0 0.00 0.00 0.00 25 1004.5
20260503222612 21 275 6.4 9.7 0.00 0.00 0.00 23 1004.5
20260503222109 21 278 4.8 11.3 0.00 0.00 0.00 25 1004.5
20260503221608 22 274 8.0 11.3 0.00 0.00 0.00 25 1004.3
20260503221105 21 312 4.8 11.3 0.00 0.00 0.00 27 1004.4
20260503220601 22 257 8.0 11.3 0.00 0.00 0.00 26 1004.2
20260503220058 22 223 1.6 8.0 0.00 0.00 0.00 27 1004.3
20260503215555 21 244 4.8 9.7 0.00 0.00 0.00 26 1004.4
20260503215052 21 258 6.4 12.9 0.00 0.00 0.00 26 1004.3
20260503214550 22 286 6.4 11.3 0.00 0.00 0.00 24 1004.3
20260503214046 21 244 6.4 12.9 0.00 0.00 0.00 24 1004.4
20260503213545 22 280 6.4 9.7 0.00 0.00 0.00 24 1004.5
20260503213041 21 258 3.2 4.8 0.00 0.00 0.00 24 1004.4
20260503212539 21 349 4.8 8.0 0.00 0.00 0.00 24 1004.3
20260503212036 21 280 6.4 14.5 0.00 0.00 0.00 23 1004.5
20260503211533 21 254 4.8 8.0 0.00 0.00 0.00 25 1004.5
20260503211028 21 267 3.2 12.9 0.00 0.00 0.00 24 1004.6
20260503210525 21 334 6.4 16.1 0.00 0.00 0.00 23 1004.7
20260503210021 21 279 1.6 4.8 0.00 0.00 0.00 23 1004.4
20260503205518 22 292 6.4 14.5 0.00 0.00 0.00 22 1004.6
20260503205015 21 306 6.4 11.3 0.00 0.00 0.00 23 1004.5
20260503204512 21 245 6.4 11.3 0.00 0.00 0.00 24 1004.7
20260503204008 22 253 6.4 12.9 0.00 0.00 0.00 23 1004.7
20260503203506 22 259 1.6 8.0 0.00 0.00 0.00 23 1004.7
20260503203003 21 251 6.4 11.3 0.00 0.00 0.00 23 1004.9
20260503202500 22 215 6.4 12.9 0.00 0.00 0.00 22 1004.9
20260503201958 22 223 8.0 9.7 0.00 0.00 0.00 24 1004.6
20260503201456 21 289 8.0 22.5 0.00 0.00 0.00 24 1005.0
20260503200953 21 272 6.4 9.7 0.00 0.00 0.00 25 1005.0
20260503200449 21 283 6.4 9.7 0.00 0.00 0.00 24 1005.0
20260503195946 21 275 8.0 20.9 0.00 0.00 0.00 25 1005.2
20260503195443 21 331 8.0 11.3 0.00 0.00 0.00 28 1005.2
20260503194940 21 2 6.4 8.0 0.00 0.00 0.00 28 1005.1
20260503194437 21 272 6.4 12.9 0.00 0.00 0.00 28 1005.3
20260503193932 21 245 3.2 11.3 0.00 0.00 0.00 30 1005.2
20260503193428 21 291 4.8 12.9 0.00 0.00 0.00 29 1005.2
20260503192923 21 345 8.0 16.1 0.00 0.00 0.00 29 1005.0
20260503192420 21 0 9.7 12.9 0.00 0.00 0.00 29 1005.2
20260503191916 21 321 8.0 9.7 0.00 0.00 0.00 29 1005.2
20260503191414 21 224 3.2 16.1 0.00 0.00 0.00 33 1005.3
20260503190910 21 287 8.0 11.3 0.00 0.00 0.00 34 1005.1
20260503190408 21 279 8.0 12.9 0.00 0.00 0.00 34 1005.0
20260503185904 20 227 6.4 12.9 0.00 0.00 0.00 33 1005.0
20260503185401 21 267 8.0 11.3 0.00 0.00 0.00 34 1005.4
20260503184900 21 236 6.4 12.9 0.00 0.00 0.00 33 1005.3
20260503184356 21 288 11.3 14.5 0.00 0.00 0.00 32 1005.4
20260503183852 21 303 4.8 8.0 0.00 0.00 0.00 33 1005.6
20260503183350 20 281 8.0 14.5 0.00 0.00 0.00 34 1005.4
20260503182847 20 18 3.2 11.3 0.00 0.00 0.00 36 1005.3
20260503182346 20 301 8.0 11.3 0.00 0.00 0.00 36 1005.3
20260503181842 20 304 9.7 17.7 0.00 0.00 0.00 36 1005.5
20260503181339 20 278 6.4 17.7 0.00 0.00 0.00 35 1005.3
20260503180836 20 262 8.0 9.7 0.00 0.00 0.00 36 1005.5
20260503180334 20 279 4.8 12.9 0.00 0.00 0.00 36 1005.4
20260503175830 20 0 8.0 12.9 0.00 0.00 0.00 34 1005.6
20260503175328 20 289 3.2 9.7 0.00 0.00 0.00 34 1005.8
20260503174823 20 262 6.4 12.9 0.00 0.00 0.00 35 1005.7
20260503174322 20 244 4.8 11.3 0.00 0.00 0.00 33 1005.7
20260503173817 20 311 6.4 12.9 0.00 0.00 0.00 35 1005.8
20260503173314 20 319 8.0 12.9 0.00 0.00 0.00 35 1005.7
20260503172810 20 267 3.2 11.3 0.00 0.00 0.00 35 1005.8
20260503172308 20 268 6.4 14.5 0.00 0.00 0.00 34 1005.8
20260503171804 20 335 12.9 14.5 0.00 0.00 0.00 35 1005.9
20260503171301 19 341 3.2 9.7 0.00 0.00 0.00 37 1005.9
20260503170758 20 303 4.8 12.9 0.00 0.00 0.00 36 1006.0
20260503170254 19 302 4.8 14.5 0.00 0.00 0.00 36 1005.8
20260503160217 18 314 11.3 16.1 0.00 0.00 0.00 40 1005.7
20260503150647 16 45 4.8 9.7 0.00 0.00 0.00 44 1005.5
20260503150143 16 311 3.2 11.3 0.00 0.00 0.00 44 1005.4
20260503140107 15 247 3.2 3.2 0.00 0.00 0.00 45 1005.4
20260503131037 13 224 1.6 3.2 0.00 0.00 0.00 51 1005.0
20260503130534 12 245 1.6 3.2 0.00 0.00 0.00 50 1004.9
20260503110425 10 208 1.6 1.6 0.00 0.00 0.00 56 1004.3
20260503090310 13 188 4.8 4.8 0.00 0.00 0.00 44 1004.9
20260503081237 13 223 3.2 11.3 0.00 0.00 0.00 48 1005.4
20260503080732 13 193 1.6 4.8 0.00 0.00 0.00 50 1005.3
20260503080230 13 214 4.8 4.8 0.00 0.00 0.00 51 1005.3
20260503072707 12 204 3.2 3.2 0.00 0.00 0.00 54 1006.1
20260503072203 13 207 1.6 8.0 0.00 0.00 0.00 53 1006.2
20260503071700 12 190 4.8 4.8 0.00 0.00 0.00 53 1006.3
20260503071157 12 186 3.2 3.2 0.00 0.00 0.00 55 1006.4
20260503070653 12 189 3.2 4.8 0.00 0.00 0.00 56 1006.4
20260503070152 12 198 3.2 4.8 0.00 0.00 0.00 54 1006.7
20260503060116 13 219 3.2 4.8 0.00 0.00 0.00 48 1007.7
20260503055108 13 200 4.8 8.0 0.00 0.00 0.00 47 1007.6
20260503054603 13 215 1.6 3.2 0.00 0.00 0.00 47 1007.6
20260503054100 13 193 6.4 9.7 0.00 0.00 0.00 47 1007.5
20260503053558 13 211 3.2 3.2 0.00 0.00 0.00 47 1007.7
20260503053056 13 201 3.2 4.8 0.00 0.00 0.00 47 1008.0
20260503052552 13 201 1.6 3.2 0.00 0.00 0.00 47 1007.6
20260503052049 14 224 0.0 3.2 0.00 0.00 0.00 47 1007.8
20260503051544 14 213 1.6 4.8 0.00 0.00 0.00 47 1008.0
20260503051043 14 203 1.6 4.8 0.00 0.00 0.00 48 1007.7
20260503050538 14 186 3.2 3.2 0.00 0.00 0.00 47 1008.0
20260503050036 14 194 3.2 3.2 0.00 0.00 0.00 47 1008.1
20260503045532 14 195 1.6 3.2 0.00 0.00 0.00 48 1007.8
20260503045030 14 199 1.6 3.2 0.00 0.00 0.00 47 1008.1
20260503044526 14 215 1.6 3.2 0.00 0.00 0.00 47 1008.1
20260503044024 14 219 1.6 1.6 0.00 0.00 0.00 47 1008.3
20260503043520 15 195 1.6 3.2 0.00 0.00 0.00 47 1008.3
20260503043017 15 204 1.6 3.2 0.00 0.00 0.00 46 1008.5
20260503042514 15 208 1.6 1.6 0.00 0.00 0.00 47 1008.5
20260503042010 15 216 1.6 3.2 0.00 0.00 0.00 46 1008.5
20260503041507 15 197 1.6 3.2 0.00 0.00 0.00 45 1008.7
20260503041005 15 198 4.8 4.8 0.00 0.00 0.00 45 1008.6
20260503040502 15 204 1.6 4.8 0.00 0.00 0.00 45 1008.9
20260503035959 15 180 4.8 4.8 0.00 0.00 0.00 44 1009.0
20260503035455 15 197 3.2 4.8 0.00 0.00 0.00 43 1008.9
20260503034953 15 197 1.6 8.0 0.00 0.00 0.00 42 1009.1
20260503034450 15 190 4.8 4.8 0.00 0.00 0.00 42 1009.1
20260503033947 15 210 3.2 3.2 0.00 0.00 0.00 43 1009.3
20260503033444 15 221 1.6 4.8 0.00 0.00 0.00 43 1009.4
20260503032943 15 189 4.8 8.0 0.00 0.00 0.00 43 1009.6
20260503032441 15 180 3.2 4.8 0.00 0.00 0.00 43 1009.5
20260503031938 15 223 1.6 3.2 0.00 0.00 0.00 43 1009.5
20260503031436 16 192 3.2 4.8 0.00 0.00 0.00 42 1009.6
20260503030932 16 218 1.6 3.2 0.00 0.00 0.00 41 1009.8
20260503030429 16 222 1.6 1.6 0.00 0.00 0.00 40 1010.0
20260503025926 16 227 3.2 4.8 0.00 0.00 0.00 40 1010.0
20260503025422 16 231 1.6 3.2 0.00 0.00 0.00 40 1010.1
20260503024920 16 232 1.6 8.0 0.00 0.00 0.00 40 1010.2
20260503024417 16 207 9.7 14.5 0.00 0.00 0.00 39 1010.2
20260503023914 16 255 4.8 12.9 0.00 0.00 0.00 39 1010.4
20260503023410 16 186 8.0 11.3 0.00 0.00 0.00 39 1010.4
20260503022908 16 224 3.2 11.3 0.00 0.00 0.00 40 1010.2
20260503022402 16 243 0.0 1.6 0.00 0.00 0.00 41 1010.4
20260503021858 16 217 1.6 4.8 0.00 0.00 0.00 41 1010.5
20260503021354 16 226 3.2 3.2 0.00 0.00 0.00 40 1010.4
20260503020851 16 225 3.2 3.2 0.00 0.00 0.00 40 1010.5
20260503020350 16 264 1.6 3.2 0.00 0.00 0.00 40 1010.5
20260503015845 16 224 1.6 3.2 0.00 0.00 0.00 40 1010.4
20260503015337 16 194 3.2 8.0 0.00 0.00 0.00 39 1010.5
20260503014833 16 204 4.8 8.0 0.00 0.00 0.00 39 1010.4
20260503014331 16 237 4.8 8.0 0.00 0.00 0.00 39 1010.6
20260503013828 17 237 1.6 11.3 0.00 0.00 0.00 37 1010.5
20260503013325 16 247 3.2 4.8 0.00 0.00 0.00 39 1010.7
20260503012822 16 254 3.2 3.2 0.00 0.00 0.00 39 1010.5
20260503012320 17 222 3.2 4.8 0.00 0.00 0.00 38 1010.4
20260503011816 17 203 4.8 11.3 0.00 0.00 0.00 38 1010.6
20260503011313 17 205 6.4 9.7 0.00 0.00 0.00 37 1010.4
20260503010809 17 227 3.2 4.8 0.00 0.00 0.00 37 1010.8
20260503010307 17 242 4.8 4.8 0.00 0.00 0.00 37 1010.6
20260503005804 17 257 6.4 9.7 0.00 0.00 0.00 36 1010.6
20260503005304 17 258 4.8 8.0 0.00 0.00 0.00 37 1010.5
20260503004757 17 287 4.8 4.8 0.00 0.00 0.00 36 1010.7
20260503004255 17 240 4.8 4.8 0.00 0.00 0.00 35 1010.7
20260503003752 17 238 1.6 3.2 0.00 0.00 0.00 35 1010.5
20260503003249 17 216 4.8 8.0 0.00 0.00 0.00 35 1010.5
20260503002746 17 254 3.2 9.7 0.00 0.00 0.00 35 1010.4
20260503002243 17 226 6.4 9.7 0.00 0.00 0.00 33 1010.6
20260503001739 17 227 4.8 9.7 0.00 0.00 0.00 33 1010.4
20260503001235 17 218 1.6 3.2 0.00 0.00 0.00 33 1010.4
20260503000734 17 240 0.0 3.2 0.00 0.00 0.00 34 1010.4
20260503000233 17 235 1.6 4.8 0.00 0.00 0.00 33 1010.4
20260502235727 18 185 6.4 9.7 0.00 0.00 0.00 33 1010.5
20260502235226 17 250 3.2 4.8 0.00 0.00 0.00 33 1010.7
20260502234721 17 199 3.2 8.0 0.00 0.00 0.00 33 1010.6
20260502234219 17 192 3.2 8.0 0.00 0.00 0.00 32 1010.4
20260502233714 17 193 3.2 3.2 0.00 0.00 0.00 33 1010.6
20260502233211 17 182 1.6 3.2 0.00 0.00 0.00 33 1010.7
20260502232707 18 210 1.6 3.2 0.00 0.00 0.00 32 1010.9
20260502232205 17 300 1.6 3.2 0.00 0.00 0.00 32 1010.7
20260502231701 17 248 4.8 4.8 0.00 0.00 0.00 33 1011.1
20260502231159 17 257 1.6 3.2 0.00 0.00 0.00 32 1011.3